Location: Unspecified
(35.6961°N, 0.0000°E)
Time: 02:32:37
(UTC+00:00)

Vanguard 3 - Pass Details

Date: 29 May 2019
Orbit: 508 x 3263 km, 33.3° (Epoch: 16 June)

Event Time Altitude Azimuth Distance (km) Brightness Sun altitude
Rises 21:52:13 0° 272° (W) 3,350 10.8 -25.4°
Reaches altitude 10° 21:54:13 10° 270° (W) 2,633 10.1 -25.6°
Maximum altitude 22:00:34 72° 187° (S) 1,390 8.0 -26.3°
Enters shadow 22:05:07 36° 112° (ESE) 2,390 9.1 -26.8°
Drops below altitude 10° 22:12:14 10° 105° (ESE) 4,647 - -27.4°
Sets 22:16:57 0° 104° (ESE) 6,090 - -27.9°
